Weather WX

World > North America > United States > Ohio

Williamsfield, Ohio Regional Weather

Lat: 41.53N, Lon: 80.57W
Wx Zone: OHZ014
Feedback

Williamsfield, OH Regional Weather

Expires:201906250200;;028748
ASUS41 KCLE 250112
RWRCLE
OHIO REGIONAL WEATHER ROUNDUP
NATIONAL WEATHER SERVICE WILMINGTON, OH
900 PM EDT MON JUN 24 2019

NOTE: "FAIR" INDICATES FEW OR NO CLOUDS BELOW 12,000 FEET WITH NO
SIGNIFICANT WEATHER AND/OR OBSTRUCTIONS TO VISIBILITY.


OHZ009>014-019>023-028>033-038-089-250200-
   NORTHEAST OHIO
  
CITY           SKY/WX    TMP DP  RH WIND       PRES   REMARKS
CLE-HOPKINS    RAIN      72  70  93 SW9       29.71S FOG              
CLE-LAKEFRONT  LGT RAIN  72  67  84 S9        29.68R FOG              
CUY CO. ARPT   LGT RAIN  72  70  94 SW7       29.70R                  
LORAIN-ELYRIA  RAIN      70  65  84 SW8       29.71R                  
ASHTABULA      LGT RAIN  72  71  97 CALM      29.70S                  
AKRON-CANTON   LGT RAIN  71  68  90 S10       29.72R FOG              
WOOSTER        LGT RAIN  70  69  97 SW12      29.73S FOG              
MANSFIELD      CLOUDY    69  69 100 S8        29.73F                  
YOUNGSTOWN     LGT RAIN  72  69  90 SE12      29.73R                  
$$
 

SKY/WX - Weather  TMP - Temperature  DP - Dew Point  RH - Relative Humidity
WIND - Wind Direction/Speed PRES - Barometric Pressure VSB - Visibility
WCI - Wind Chill Index E13G22 Wind - East Wind 13 mph/Gusts of 22 mph